Mazar I Sharif Airport
OAMS : now visible

Airfield :











YOU CAN JOIN US ON...

 
LOGIN :

Register | Disclaimer

   EN    FR    IT 

 









Legend :    VFR   Marginal VFR   IFR   Intensive IFR   Very Intensive IFR
Visi :
Ceiling :
>= 8 km
>= 3000ft
5 to 8 km
1000 to 3000 ft
1500m to 5 km
500 to 1000 ft
800 to 1500m
200 to 500 ft
< 800m
< 200 ft
Symbols :   Thunderstorms  Fog  Heavy snow  Heavy precipitations  Wind > 20 kt






- Airport Elevation : 1284 ft
- IATA code : MZR


OAMS - Mazar I Sharif

CURRENT METAR :
  • 080150Z 26008KT 9999 SCT150 BKN180 31/02 Q1005 BLU BLU

EXPIRED METARs :
  • 072350Z 22007KT 9999 SCT160 BKN180 31/01 Q1004 BLU BLU

TAF OAMS
Valid from the 08 at 00:00 until the 09 at 00:00 UTC


072305Z 0800/0824 22012KT 9999 NSW BKN180
BECMG 0805/0807 31015KT 9999 NSW BKN180
BECMG 0815/0817 21012KT 9999 NSW SCT180
OAKX FIR / Asia



MET'MAP, your aeronautical weather chart ! - Copyright ORBIFLY December 2007 - Disclaimer

ORBIFLY MET'MAP TEAM :

Programming & Development : Alexandra Zaïnal
Concept & original design : Baudouin d'Aumeries
Assistance for programming : Marc-Olivier Méhu
Technical & hardware support : Manuel Goepfert

Contact : metmap@orbifly.com




SOURCES & CREDITS :

   NOAA       Earth
Advisory